Weather in Groningen

Netherlands     53°12′49″N   6°33′21″E
temp.,
°C
wind,
m/s
gust,
m/s
humid.,
%
clouds,
%
prec.,
mm/h
press.,
hPa
HPBL,
m
26 june, sun
sun2623:00+16ne3596100 0.9 1012105
02:00+17sse239463 3.4 101259
05:00+16sw3895100 0.9 1012216
08:00+17sw4890100 0.9 1013450
11:00+20sw576685 0.0 10151025
14:00+21sw5656100 0.0 10161488
17:00+21sw3461100 0.0 1016813
20:00+18n3374100 0.0 101680
27 june, mon
mon2723:00+15e239198 0.1 101656
02:00+15e3492100 0.1 1016102
05:00+14e2498100 1.6 1015139
08:00+15sse1298100 1.9 1016145
11:00+18se1186100 0.6 1015447
14:00+19w3474100 2.6 1016816
17:00+20w666195 0.6 10171252
20:00+18w4673100 0.8 1018511
28 june, tue
tue2823:00+13w33906 0.0 102035
02:00+11sw23890 0.0 102023
05:00+10ssw33885 0.0 102143
08:00+15ssw46742 0.0 1021247
11:00+19ssw57560 0.0 10211186
14:00+22sw56500 0.0 10202003
17:00+22wsw235599 0.0 1019648
20:00+19nne357319 0.0 1019249
29 june, wed
wed2923:00+15ene34887 0.0 101962
02:00+14ese4108399 0.0 1018154
05:00+14ese37795 0.0 1017104
08:00+18se49746 0.0 1016238
11:00+24sse455827 0.0 1016655
14:00+26sse4651100 0.0 10152185
17:00+26se2452100 0.0 10141294
20:00+22nw34766 0.3 1014145
30 june, thu
thu3023:00+17n339241 0.0 101533
02:00+18e3485100 0.0 101447
05:00+16ese47730 0.0 101395
08:00+20ese386835 0.0 1013188
11:00+21ese4770100 0.0 1013296
14:00+23e3675100 0.1 1012206
17:00+28ese68485 0.1 10101788
20:00+24e612620 0.1 1009433